• Join FlightAware (Why Join?)
  • Login
  • US Flag 
01:43AM EST


 

Airport Tracker/Info


-or-


 

Live Flight TrackerFlight Track Log ✈ N350BV ✈ 01-May-2013 ✈ KBFL - KSMF

Flight Track Log - Related Links

Times and Time Zones

All times are in EDT time to prevent confusion due to time zone crossing. See the N350BV flight status page for this flight to view local times or setup timezone preferences in your user account.

Time Position Orientation Groundspeed Altitude Reporting Facility
EDT Latitude Longitude Course Direction KTS MPH feet Rate Location/Type
05:28PM 35.5239 -119.1356 337° Northwest 247 284 4,300  Level Los Angeles Center
05:29PM 35.5956 -119.1728 337° Northwest 283 326 6,300 2,032 Climbing Los Angeles Center
05:30PM 35.6722 -119.2081 340° North 287 330 8,500 2,177 Climbing Los Angeles Center
05:31PM 35.7497 -119.2417 341° North 293 337 10,800 2,256 Climbing Los Angeles Center
05:33PM 35.8406 -119.2892 337° Northwest 296 341 13,200 1,920 Climbing Los Angeles Center
05:34PM 35.9192 -119.3286 338° Northwest 303 349 14,800 1,548 Climbing Los Angeles Center
05:35PM 35.9992 -119.3678 338° Northwest 308 354 16,400 1,548 Climbing Los Angeles Center
05:36PM 36.0789 -119.4083 338° Northwest 310 357 18,000 1,548 Climbing Los Angeles Center
05:37PM 36.1622 -119.4500 338° Northwest 319 367 19,600 1,645 Climbing Los Angeles Center
05:38PM 36.2631 -119.5008 338° Northwest 326 375 21,400 1,161 Climbing Los Angeles Center
05:39PM 36.3497 -119.5447 338° Northwest 333 383 22,000 275 Climbing Los Angeles Center
05:40PM 36.4442 -119.5914 338° Northwest 364 419 22,000  Level Oakland Center
05:41PM 36.5564 -119.6489 338° Northwest 365 420 22,000  Level Oakland Center
05:42PM 36.6503 -119.6964 338° Northwest 365 420 22,000  Level Oakland Center
05:43PM 36.7444 -119.7442 338° Northwest 358 412 22,000  Level Oakland Center
05:44PM 36.8403 -119.7931 338° Northwest 373 429 22,000  Level Oakland Center
05:45PM 36.9342 -119.8411 338° Northwest 366 421 22,000  Level Oakland Center
05:46PM 37.0275 -119.8886 338° Northwest 365 420 22,000  Level Oakland Center
05:47PM 37.1058 -119.9700 320° Northwest 353 406 22,000  Level Oakland Center
05:48PM 37.1786 -120.0575 316° Northwest 359 413 22,000  Level Oakland Center
05:49PM 37.2531 -120.1433 317° Northwest 361 415 22,000  Level Oakland Center
05:50PM 37.3414 -120.2503 316° Northwest 369 425 22,000  Level Oakland Center
05:51PM 37.4167 -120.3319 319° Northwest 358 412 22,000 -98 Level Oakland Center
05:52PM 37.4942 -120.4153 320° Northwest 364 419 21,800 -885 Descending Oakland Center
05:53PM 37.5736 -120.4942 322° Northwest 363 418 20,200 -1,524 Descending Oakland Center
05:54PM 37.6500 -120.5833 317° Northwest 355 409 18,600 -1,440 Descending Northern Cal TRACON
05:55PM 37.7333 -120.6667 322° Northwest 346 398 17,200 -1,250 Descending Northern Cal TRACON
05:56PM 37.8000 -120.7333 322° Northwest 340 391 16,100 -600 Descending Northern Cal TRACON
05:57PM 37.8833 -120.8167 322° Northwest 336 387 16,000 -49 Descending Northern Cal TRACON
05:58PM 37.9469 -120.8725 325° Northwest 336 387 16,000 -726 Level Oakland Center
05:59PM 38.0353 -120.9614 322° Northwest 338 389 14,500 -1,463 Descending Oakland Center
06:00PM 38.1044 -121.0397 318° Northwest 332 382 13,000 -1,475 Descending Oakland Center
06:01PM 38.1667 -121.1333 310° West 325 374 11,500 -1,240 Descending Northern Cal TRACON
06:02PM 38.2167 -121.2167 307° West 309 356 10,500 -1,286 Descending Northern Cal TRACON
06:03PM 38.2833 -121.3000 316° Northwest 302 348 8,800 -1,524 Descending Northern Cal TRACON
06:04PM 38.3333 -121.3833 307° West 301 346 7,300 -1,488 Descending Northern Cal TRACON
06:05PM 38.3833 -121.4667 307° West 286 329 5,800 -1,526 Descending Northern Cal TRACON
06:06PM 38.4333 -121.5333 314° West 273 314 4,400 -1,368 Descending Northern Cal TRACON
06:07PM 38.4833 -121.5833 322° Northwest 238 274 3,200 -714 Descending Northern Cal TRACON
06:08PM 38.5333 -121.6000 345° North 196 226 2,900 -571 Descending Northern Cal TRACON
06:09PM 38.5833 -121.6000 360° North 151 174 2,000 -850 Descending Northern Cal TRACON
06:10PM 38.6333 -121.6000 360° North 147 169 1,200 -750 Descending Northern Cal TRACON
06:11PM 38.6667 -121.6000 360° North 119 137 500 -500 Descending Northern Cal TRACON
06:12PM 38.7000 -121.6000 360° North 110 127 200 -300 Descending Northern Cal TRACON
06:15PM 38.6954 -121.5908 46° Northeast  Level Estimated